Time,TemperatureF,DewpointF,PressureIn,WindDirection,WindDirectionDegrees,WindSpeedMPH,WindSpeedGustMPH,Humidity,HourlyPrecipIn,Conditions,Clouds,dailyrainin,SoftwareType,DateUTC
2013-03-05 00:01:00,37.0,28.0,30.03,NW,315,7.0,14.0,71,0.00,,,0.07,,2013-03-05 06:01:00,
2013-03-05 00:11:00,37.0,28.0,30.03,NW,315,7.0,14.0,71,0.00,,,0.07,,2013-03-05 06:11:00,
2013-03-05 00:22:00,38.0,29.0,30.05,NW,305,8.0,17.0,69,0.00,,,0.07,,2013-03-05 06:22:00,
2013-03-05 00:32:00,37.0,29.0,30.07,North,351,5.0,15.0,72,0.00,,,0.07,,2013-03-05 06:32:00,
2013-03-05 00:42:00,37.0,29.0,30.07,North,351,5.0,15.0,72,0.00,,,0.07,,2013-03-05 06:42:00,
2013-03-05 00:52:00,37.0,25.0,30.08,NNW,334,14.0,24.0,61,0.00,,,0.07,,2013-03-05 06:52:00,
2013-03-05 01:01:00,36.0,25.0,30.06,NW,313,8.0,21.0,63,0.00,,,0.07,,2013-03-05 07:01:00,
2013-03-05 01:11:00,36.0,25.0,30.06,NW,313,8.0,21.0,63,0.00,,,0.07,,2013-03-05 07:11:00,
2013-03-05 01:22:00,36.0,25.0,30.08,NNW,346,4.0,19.0,64,0.00,,,0.07,,2013-03-05 07:22:00,
2013-03-05 01:31:00,35.0,24.0,30.09,NNW,330,4.0,12.0,65,0.00,,,0.07,,2013-03-05 07:31:00,
2013-03-05 01:41:00,35.0,24.0,30.09,NNW,330,4.0,12.0,65,0.00,,,0.07,,2013-03-05 07:41:00,
2013-03-05 01:51:00,34.0,22.0,30.10,NW,321,6.0,18.0,60,0.00,,,0.07,,2013-03-05 07:51:00,
2013-03-05 02:02:00,34.0,22.0,30.11,North,351,6.0,17.0,62,0.00,,,0.07,,2013-03-05 08:02:00,
2013-03-05 02:11:00,34.0,22.0,30.11,North,351,6.0,17.0,62,0.00,,,0.07,,2013-03-05 08:11:00,
2013-03-05 02:21:00,34.0,21.0,30.12,North,360,8.0,19.0,59,0.00,,,0.07,,2013-03-05 08:21:00,
2013-03-05 02:31:00,33.0,21.0,30.12,NNE,32,3.0,15.0,61,0.00,,,0.07,,2013-03-05 08:31:00,
2013-03-05 02:41:00,33.0,21.0,30.12,NNE,32,3.0,15.0,61,0.00,,,0.07,,2013-03-05 08:41:00,
2013-03-05 02:52:00,32.0,20.0,30.12,North,9,6.0,13.0,60,0.00,,,0.07,,2013-03-05 08:52:00,
2013-03-05 03:01:00,32.0,19.0,30.13,NW,326,2.0,12.0,59,0.00,,,0.07,,2013-03-05 09:01:00,
2013-03-05 03:11:00,32.0,19.0,30.13,NW,326,2.0,12.0,59,0.00,,,0.07,,2013-03-05 09:11:00,
2013-03-05 03:21:00,31.0,18.0,30.14,NNW,344,2.0,14.0,59,0.00,,,0.07,,2013-03-05 09:21:00,
2013-03-05 03:31:00,31.0,19.0,30.15,NNW,348,5.0,15.0,60,0.00,,,0.07,,2013-03-05 09:31:00,
2013-03-05 03:42:00,31.0,19.0,30.15,NNW,348,5.0,15.0,60,0.00,,,0.07,,2013-03-05 09:42:00,
2013-03-05 03:52:00,31.0,18.0,30.15,NNW,331,10.0,21.0,58,0.00,,,0.07,,2013-03-05 09:52:00,
2013-03-05 04:01:00,30.0,17.0,30.16,North,5,9.0,20.0,59,0.00,,,0.07,,2013-03-05 10:01:00,
2013-03-05 04:11:00,30.0,17.0,30.16,North,5,9.0,20.0,59,0.00,,,0.07,,2013-03-05 10:11:00,
2013-03-05 04:21:00,30.0,17.0,30.17,NNW,344,9.0,24.0,58,0.00,,,0.07,,2013-03-05 10:21:00,
2013-03-05 04:32:00,30.0,17.0,30.18,NNW,344,10.0,17.0,58,0.00,,,0.07,,2013-03-05 10:32:00,
2013-03-05 04:42:00,30.0,17.0,30.18,NNW,344,10.0,17.0,58,0.00,,,0.07,,2013-03-05 10:42:00,
2013-03-05 04:52:00,29.0,16.0,30.18,NNW,340,6.0,13.0,59,0.00,,,0.07,,2013-03-05 10:52:00,
2013-03-05 05:01:00,29.0,17.0,30.18,NNW,344,5.0,12.0,60,0.00,,,0.07,,2013-03-05 11:01:00,
2013-03-05 05:11:00,29.0,17.0,30.18,NNW,344,5.0,12.0,60,0.00,,,0.07,,2013-03-05 11:11:00,
2013-03-05 05:22:00,29.0,17.0,30.19,NNW,338,7.0,13.0,60,0.00,,,0.07,,2013-03-05 11:22:00,
2013-03-05 05:32:00,29.0,17.0,30.19,North,360,6.0,15.0,60,0.00,,,0.07,,2013-03-05 11:32:00,
2013-03-05 05:42:00,29.0,17.0,30.19,North,360,6.0,15.0,60,0.00,,,0.07,,2013-03-05 11:42:00,
2013-03-05 05:52:00,28.0,17.0,30.19,NNW,342,4.0,10.0,62,0.00,,,0.07,,2013-03-05 11:52:00,
2013-03-05 06:02:00,28.0,17.0,30.20,North,350,3.0,7.0,64,0.00,,,0.07,,2013-03-05 12:02:00,
2013-03-05 06:12:00,28.0,17.0,30.20,North,350,3.0,7.0,64,0.00,,,0.07,,2013-03-05 12:12:00,
2013-03-05 06:22:00,27.0,17.0,30.20,WNW,294,5.0,10.0,66,0.00,,,0.07,,2013-03-05 12:22:00,
2013-03-05 06:32:00,27.0,18.0,30.20,WNW,296,5.0,10.0,68,0.00,,,0.07,,2013-03-05 12:32:00,
2013-03-05 06:42:00,27.0,18.0,30.20,WNW,296,5.0,10.0,68,0.00,,,0.07,,2013-03-05 12:42:00,
2013-03-05 06:52:00,27.0,18.0,30.21,NW,306,3.0,10.0,68,0.00,,,0.07,,2013-03-05 12:52:00,
2013-03-05 07:02:00,27.0,18.0,30.22,NW,308,7.0,13.0,68,0.00,,,0.07,,2013-03-05 13:02:00,
2013-03-05 07:11:00,27.0,18.0,30.22,NW,308,7.0,13.0,68,0.00,,,0.07,,2013-03-05 13:11:00,
2013-03-05 07:21:00,27.0,18.0,30.22,NW,309,4.0,12.0,67,0.00,,,0.07,,2013-03-05 13:21:00,
2013-03-05 07:32:00,28.0,18.0,30.23,NW,318,6.0,14.0,66,0.00,,,0.07,,2013-03-05 13:32:00,
2013-03-05 07:42:00,28.0,18.0,30.23,NW,318,6.0,14.0,66,0.00,,,0.07,,2013-03-05 13:42:00,
2013-03-05 07:52:00,28.0,18.0,30.22,NW,310,8.0,16.0,66,0.00,,,0.07,,2013-03-05 13:52:00,
2013-03-05 08:02:00,28.0,18.0,30.23,NW,324,6.0,14.0,66,0.00,,,0.07,,2013-03-05 14:02:00,
2013-03-05 08:11:00,28.0,18.0,30.23,NW,324,6.0,14.0,66,0.00,,,0.07,,2013-03-05 14:11:00,
2013-03-05 08:21:00,29.0,19.0,30.24,NNW,340,5.0,15.0,65,0.00,,,0.07,,2013-03-05 14:21:00,
2013-03-05 08:32:00,29.0,18.0,30.24,NNW,329,5.0,14.0,64,0.00,,,0.07,,2013-03-05 14:32:00,
2013-03-05 08:42:00,29.0,18.0,30.24,NNW,329,5.0,14.0,64,0.00,,,0.07,,2013-03-05 14:42:00,
2013-03-05 08:52:00,30.0,19.0,30.25,NNW,333,6.0,15.0,64,0.00,,,0.07,,2013-03-05 14:52:00,
2013-03-05 09:01:00,30.0,19.0,30.25,NNW,338,12.0,23.0,62,0.00,,,0.07,,2013-03-05 15:01:00,
2013-03-05 09:11:00,30.0,19.0,30.25,NNW,338,12.0,23.0,62,0.00,,,0.07,,2013-03-05 15:11:00,
2013-03-05 09:21:00,31.0,19.0,30.26,NNW,331,12.0,21.0,61,0.00,,,0.07,,2013-03-05 15:21:00,
2013-03-05 09:32:00,31.0,18.0,30.26,WNW,297,11.0,19.0,59,0.00,,,0.07,,2013-03-05 15:32:00,
2013-03-05 09:42:00,31.0,18.0,30.26,WNW,297,11.0,19.0,59,0.00,,,0.07,,2013-03-05 15:42:00,
2013-03-05 09:51:00,32.0,20.0,30.27,NW,319,13.0,22.0,60,0.00,,,0.07,,2013-03-05 15:51:00,
2013-03-05 10:01:00,32.0,19.0,30.27,NW,313,12.0,23.0,57,0.00,,,0.07,,2013-03-05 16:01:00,
2013-03-05 10:11:00,32.0,19.0,30.27,NW,313,12.0,23.0,57,0.00,,,0.07,,2013-03-05 16:11:00,
2013-03-05 10:21:00,33.0,19.0,30.27,NW,317,10.0,24.0,56,0.00,,,0.07,,2013-03-05 16:21:00,
2013-03-05 10:32:00,33.0,19.0,30.27,NNW,339,14.0,29.0,55,0.00,,,0.07,,2013-03-05 16:32:00,
2013-03-05 10:42:00,33.0,19.0,30.27,NNW,339,14.0,29.0,55,0.00,,,0.07,,2013-03-05 16:42:00,
2013-03-05 10:51:00,34.0,19.0,30.28,NNW,339,15.0,23.0,54,0.00,,,0.07,,2013-03-05 16:51:00,
2013-03-05 11:01:00,34.0,19.0,30.27,NNW,331,13.0,20.0,54,0.00,,,0.07,,2013-03-05 17:01:00,
2013-03-05 11:11:00,34.0,19.0,30.27,NNW,331,13.0,20.0,54,0.00,,,0.07,,2013-03-05 17:11:00,
2013-03-05 11:21:00,35.0,21.0,30.28,NW,311,12.0,20.0,57,0.00,,,0.07,,2013-03-05 17:21:00,
2013-03-05 11:32:00,36.0,21.0,30.28,NW,326,11.0,21.0,54,0.00,,,0.07,,2013-03-05 17:32:00,
2013-03-05 11:42:00,36.0,21.0,30.28,NW,326,11.0,21.0,54,0.00,,,0.07,,2013-03-05 17:42:00,
2013-03-05 11:52:00,35.0,20.0,30.28,North,351,11.0,26.0,53,0.00,,,0.07,,2013-03-05 17:52:00,
2013-03-05 12:02:00,36.0,21.0,30.28,NNW,334,7.0,24.0,55,0.00,,,0.07,,2013-03-05 18:02:00,
2013-03-05 12:11:00,36.0,21.0,30.28,NNW,334,7.0,24.0,55,0.00,,,0.07,,2013-03-05 18:11:00,
2013-03-05 12:21:00,37.0,21.0,30.28,NNW,342,13.0,24.0,52,0.00,,,0.07,,2013-03-05 18:21:00,
2013-03-05 12:32:00,38.0,23.0,30.28,NW,326,9.0,21.0,54,0.00,,,0.07,,2013-03-05 18:32:00,
2013-03-05 12:42:00,38.0,23.0,30.28,NW,326,9.0,21.0,54,0.00,,,0.07,,2013-03-05 18:42:00,
2013-03-05 12:52:00,38.0,22.0,30.28,WNW,296,12.0,18.0,52,0.00,,,0.07,,2013-03-05 18:52:00,
2013-03-05 13:01:00,38.0,22.0,30.29,NW,311,10.0,21.0,51,0.00,,,0.07,,2013-03-05 19:01:00,
2013-03-05 13:11:00,38.0,22.0,30.29,NW,311,10.0,21.0,51,0.00,,,0.07,,2013-03-05 19:11:00,
2013-03-05 13:21:00,39.0,22.0,30.28,NW,322,15.0,25.0,51,0.00,,,0.07,,2013-03-05 19:21:00,
2013-03-05 13:32:00,40.0,22.0,30.28,NNW,333,14.0,22.0,48,0.00,,,0.07,,2013-03-05 19:32:00,
2013-03-05 13:42:00,40.0,22.0,30.28,NNW,333,14.0,22.0,48,0.00,,,0.07,,2013-03-05 19:42:00,
2013-03-05 13:51:00,39.0,21.0,30.28,WNW,291,10.0,19.0,48,0.00,,,0.07,,2013-03-05 19:51:00,
2013-03-05 14:01:00,40.0,22.0,30.27,North,351,10.0,20.0,49,0.00,,,0.07,,2013-03-05 20:01:00,
2013-03-05 14:11:00,40.0,23.0,30.27,NW,322,5.0,23.0,50,0.00,,,0.07,,2013-03-05 20:11:00,
2013-03-05 14:21:00,40.0,23.0,30.27,NW,322,5.0,23.0,50,0.00,,,0.07,,2013-03-05 20:21:00,
2013-03-05 14:32:00,41.0,24.0,30.27,NNW,334,7.0,24.0,50,0.00,,,0.07,,2013-03-05 20:32:00,
2013-03-05 14:42:00,41.0,24.0,30.27,NNW,334,7.0,24.0,50,0.00,,,0.07,,2013-03-05 20:42:00,
2013-03-05 14:52:00,41.0,23.0,30.27,North,360,13.0,22.0,48,0.00,,,0.07,,2013-03-05 20:52:00,
2013-03-05 15:02:00,41.0,23.0,30.26,NNW,343,9.0,18.0,48,0.00,,,0.07,,2013-03-05 21:02:00,
2013-03-05 15:11:00,41.0,23.0,30.26,NNW,343,9.0,18.0,48,0.00,,,0.07,,2013-03-05 21:11:00,
2013-03-05 15:21:00,43.0,24.0,30.26,NW,309,8.0,20.0,46,0.00,,,0.07,,2013-03-05 21:21:00,
2013-03-05 15:32:00,42.0,23.0,30.26,NW,308,7.0,18.0,46,0.00,,,0.07,,2013-03-05 21:32:00,
2013-03-05 15:42:00,42.0,23.0,30.26,NW,308,7.0,18.0,46,0.00,,,0.07,,2013-03-05 21:42:00,
2013-03-05 15:52:00,42.0,23.0,30.27,NNW,335,8.0,20.0,46,0.00,,,0.07,,2013-03-05 21:52:00,
2013-03-05 16:01:00,42.0,23.0,30.27,NW,312,7.0,19.0,46,0.00,,,0.07,,2013-03-05 22:01:00,
2013-03-05 16:11:00,42.0,23.0,30.27,NW,312,7.0,19.0,46,0.00,,,0.07,,2013-03-05 22:11:00,
2013-03-05 16:21:00,43.0,24.0,30.27,NNW,334,6.0,18.0,47,0.00,,,0.07,,2013-03-05 22:21:00,
2013-03-05 16:32:00,42.0,22.0,30.27,NNE,30,11.0,22.0,44,0.00,,,0.07,,2013-03-05 22:32:00,
2013-03-05 16:42:00,42.0,22.0,30.27,NNE,30,11.0,22.0,44,0.00,,,0.07,,2013-03-05 22:42:00,
2013-03-05 16:52:00,43.0,24.0,30.27,North,351,5.0,17.0,46,0.00,,,0.07,,2013-03-05 22:52:00,
2013-03-05 17:01:00,43.0,23.0,30.27,NW,321,7.0,17.0,45,0.00,,,0.07,,2013-03-05 23:01:00,
2013-03-05 17:11:00,43.0,23.0,30.27,NW,321,7.0,17.0,45,0.00,,,0.07,,2013-03-05 23:11:00,
2013-03-05 17:21:00,42.0,21.0,30.26,NW,320,11.0,18.0,43,0.00,,,0.07,,2013-03-05 23:21:00,
2013-03-05 17:32:00,42.0,22.0,30.26,NW,313,9.0,16.0,44,0.00,,,0.07,,2013-03-05 23:32:00,
2013-03-05 17:42:00,42.0,22.0,30.26,NW,313,9.0,16.0,44,0.00,,,0.07,,2013-03-05 23:42:00,
2013-03-05 17:52:00,41.0,22.0,30.26,NNE,21,4.0,14.0,46,0.00,,,0.07,,2013-03-05 23:52:00,
2013-03-05 18:01:00,41.0,22.0,30.27,NNW,342,2.0,10.0,47,0.00,,,0.07,,2013-03-06 00:01:00,
2013-03-05 18:11:00,41.0,22.0,30.27,NNW,342,2.0,10.0,47,0.00,,,0.07,,2013-03-06 00:11:00,
2013-03-05 18:21:00,39.0,20.0,30.27,NNW,346,1.0,14.0,47,0.00,,,0.07,,2013-03-06 00:21:00,
2013-03-05 18:32:00,38.0,22.0,30.29,NW,313,1.0,10.0,51,0.00,,,0.07,,2013-03-06 00:32:00,
2013-03-05 18:42:00,38.0,22.0,30.29,NW,313,1.0,10.0,51,0.00,,,0.07,,2013-03-06 00:42:00,
2013-03-05 18:51:00,38.0,23.0,30.29,NNW,342,1.0,9.0,54,0.00,,,0.07,,2013-03-06 00:51:00,
2013-03-05 19:02:00,36.0,22.0,30.29,North,351,0.0,1.0,56,0.00,,,0.07,,2013-03-06 01:02:00,
2013-03-05 19:11:00,36.0,22.0,30.29,North,351,0.0,1.0,56,0.00,,,0.07,,2013-03-06 01:11:00,
2013-03-05 19:21:00,35.0,22.0,30.30,WNW,298,0.0,2.0,58,0.00,,,0.07,,2013-03-06 01:21:00,
2013-03-05 19:32:00,34.0,22.0,30.31,North,360,1.0,3.0,60,0.00,,,0.07,,2013-03-06 01:32:00,
2013-03-05 19:42:00,34.0,22.0,30.31,North,360,1.0,3.0,60,0.00,,,0.07,,2013-03-06 01:42:00,
2013-03-05 19:51:00,34.0,22.0,30.31,North,10,0.0,2.0,60,0.00,,,0.07,,2013-03-06 01:51:00,
2013-03-05 20:01:00,33.0,22.0,30.32,North,10,0.0,0.0,64,0.00,,,0.07,,2013-03-06 02:01:00,
2013-03-05 20:11:00,33.0,22.0,30.32,North,10,0.0,0.0,64,0.00,,,0.07,,2013-03-06 02:11:00,
2013-03-05 20:22:00,31.0,22.0,30.32,North,10,0.0,0.0,69,0.00,,,0.07,,2013-03-06 02:22:00,
2013-03-05 20:32:00,30.0,22.0,30.33,North,10,0.0,0.0,71,0.00,,,0.07,,2013-03-06 02:32:00,
2013-03-05 20:42:00,30.0,22.0,30.33,North,10,0.0,0.0,71,0.00,,,0.07,,2013-03-06 02:42:00,
2013-03-05 20:52:00,29.0,21.0,30.33,North,10,0.0,0.0,73,0.00,,,0.06,,2013-03-06 02:52:00,
2013-03-05 21:01:00,29.0,21.0,30.33,North,10,0.0,0.0,73,0.00,,,0.06,,2013-03-06 03:01:00,
2013-03-05 21:11:00,29.0,21.0,30.33,North,10,0.0,0.0,73,0.00,,,0.06,,2013-03-06 03:11:00,
2013-03-05 21:22:00,28.0,22.0,30.34,North,10,0.0,0.0,77,0.00,,,0.06,,2013-03-06 03:22:00,
2013-03-05 21:32:00,27.0,22.0,30.35,North,10,0.0,0.0,80,0.00,,,0.06,,2013-03-06 03:32:00,
2013-03-05 21:42:00,27.0,22.0,30.35,North,10,0.0,0.0,80,0.00,,,0.06,,2013-03-06 03:42:00,
2013-03-05 21:52:00,26.0,21.0,30.35,North,10,0.0,0.0,82,0.00,,,0.01,,2013-03-06 03:52:00,
2013-03-05 22:02:00,26.0,21.0,30.35,North,10,0.0,0.0,82,0.00,,,0.01,,2013-03-06 04:02:00,
2013-03-05 22:11:00,26.0,21.0,30.35,North,10,0.0,0.0,82,0.00,,,0.01,,2013-03-06 04:11:00,
2013-03-05 22:21:00,26.0,21.0,30.35,North,10,0.0,0.0,82,0.00,,,0.01,,2013-03-06 04:21:00,
2013-03-05 22:32:00,25.0,20.0,30.35,North,10,0.0,0.0,81,0.00,,,0.01,,2013-03-06 04:32:00,
2013-03-05 22:42:00,25.0,20.0,30.35,North,10,0.0,0.0,81,0.00,,,0.01,,2013-03-06 04:42:00,
2013-03-05 22:52:00,25.0,20.0,30.35,North,10,0.0,0.0,82,0.00,,,0.00,,2013-03-06 04:52:00,
2013-03-05 23:02:00,24.0,20.0,30.36,North,10,0.0,0.0,84,0.00,,,0.00,,2013-03-06 05:02:00,
2013-03-05 23:11:00,24.0,20.0,30.36,North,10,0.0,0.0,84,0.00,,,0.00,,2013-03-06 05:11:00,
2013-03-05 23:22:00,24.0,20.0,30.36,North,10,0.0,0.0,83,0.00,,,0.00,,2013-03-06 05:22:00,
2013-03-05 23:32:00,23.0,19.0,30.36,North,10,0.0,0.0,84,0.00,,,0.00,,2013-03-06 05:32:00,
2013-03-05 23:42:00,23.0,19.0,30.36,North,10,0.0,0.0,84,0.00,,,0.00,,2013-03-06 05:42:00,
2013-03-05 23:52:00,23.0,19.0,30.36,North,10,0.0,0.0,85,0.00,,,0.00,,2013-03-06 05:52:00,